sat.trackr.live / text

‹ back to catalog

STARLINK-3106

NORAD 49164 · 2021-082AL

PAYLOAD ACTIVE UNKNOWN

§ Identity

Operator
Country
US
Launch date
2021-09-14
Launch site
AFWTR
Launch vehicle
Mass (kg)
RCS (m²)

Purposes: comms

External: N2YO · Heavens-Above · Gunter

§ Orbital elements

Epoch: 2026-09-20T01:02:52.788192Z

Period
96.11 min
Inclination
69.9990°
Eccentricity
0.0003117
Mean motion
14.98338562 rev/d
Perigee alt
569.9 km
Apogee alt
574.2 km
Semi-major
6,950.2 km
B*
8.1766e-5
RAAN
144.4171°
Arg perigee
273.6843°
Mean anomaly
86.3959°
Rev number
27,674

§ Raw data

STARLINK-31061 49164U 21082AL  26263.04366653  .00000883  00000+0  81766-4 0  99992 49164  69.9990 144.4171 0003117 273.6843  86.3959 14.98338562276740

JSON: /api/v1/satellites/49164 · /tle

For live sub-satellite position, see the globe view (requires WebGL).

§ Visibility from observer

Set your observer location to see the next 7 days of passes ≥ 10°. The values pass through the URL so the page stays shareable.

No JS? Fill the form by hand. The geolocation button needs JavaScript.